This is the latest recevied weather packets stored in our database for station/object NN5DX-12. If no packets are shown the sender has not sent any weather packets the latest 10 day(s).
| Time | Temp. | Humidity | Pressure | Rain* | Wind** | Luminosity | Snow |
|---|---|---|---|---|---|---|---|
| 1777953317 | 3.33° C | 94% | 1014.6 hPa | 4.57 mm | - | - | - |
| 1777953017 | 3.33° C | 95% | 1014.6 hPa | 4.06 mm | - | - | - |
| 1777952719 | 3.89° C | 95% | 1015.1 hPa | 4.06 mm | - | - | - |
| 1777952417 | 3.89° C | 94% | 1015.2 hPa | 3.56 mm | - | - | - |
| 1777952117 | 3.89° C | 94% | 1015.1 hPa | 3.56 mm | - | - | - |
| 1777951817 | 3.89° C | 94% | 1015.2 hPa | 3.05 mm | - | - | - |
| 1777951517 | 3.89° C | 94% | 1014.7 hPa | 2.79 mm | - | - | - |
| 1777951217 | 4.44° C | 94% | 1015.2 hPa | 2.29 mm | - | - | - |
| 1777950917 | 4.44° C | 94% | 1015.2 hPa | 1.78 mm | - | - | - |
| 1777950617 | 4.44° C | 93% | 1014.8 hPa | 1.52 mm | - | - | - |
| 1777950317 | 4.44° C | 93% | 1014.6 hPa | 1.02 mm | - | - | - |
| 1777950017 | 4.44° C | 94% | 1014.5 hPa | 0.76 mm | - | - | - |
| 1777949718 | 4.44° C | 94% | 1014.3 hPa | 0.51 mm | - | - | - |
| 1777949417 | 4.44° C | 94% | 1014.3 hPa | 0.51 mm | - | - | - |
| 1777949117 | 4.44° C | 93% | 1014.2 hPa | 0.25 mm | - | - | - |
| 1777948817 | 4.44° C | 93% | 1014.2 hPa | 0.25 mm | - | - | - |
| 1777948517 | 4.44° C | 93% | 1014 hPa | 0 mm | - | - | - |
| 1777948217 | 4.44° C | 93% | 1013.9 hPa | 0 mm | - | - | - |
| 1777947917 | 4.44° C | 93% | 1012.7 hPa | 0 mm | - | - | - |
| 1777947617 | 4.44° C | 93% | 1012.5 hPa | 0 mm | - | - | - |
| 1777947317 | 4.44° C | 92% | 1012.2 hPa | 0.25 mm | - | - | - |
| 1777947017 | 4.44° C | 92% | 1012 hPa | 0.25 mm | - | - | - |
| 1777946717 | 4.44° C | 92% | 1011.8 hPa | 0.25 mm | - | - | - |
| 1777946417 | 4.44° C | 92% | 1011.7 hPa | 0.25 mm | - | - | - |
| 1777946117 | 4.44° C | 92% | 1011.9 hPa | 0.25 mm | - | - | - |
* Rain latest hour (hover to see other rain measurements)
** Current wind speed in m/s (hover to see current wind gust speed)